Miscellaneous Local Product
Issued by NWS Hastings, NE

Home | Current Version | Previous Version | Text Only | Print | Product List | Glossary On
Versions: 1 2 3 4 5 6 7 8 9 10 11 12 13 14 15 16 17 18 19 20 21 22 23 24 25 26 27 28 29 30 31 32 33 34 35 36 37 38 39 40 41 42 43 44 45 46 47 48 49 50
000
AXUS43 KGID 240502
MISGRI

GID CWA HOURLY WEATHER ROUNDUP
NATIONAL WEATHER SERVICE HASTINGS NE
1200 AM CDT WED AUG 24 2016

NOTE: "FAIR" INDICATES FEW OR NO CLOUDS BELOW 12,000 FEET WITH NO
SIGNIFICANT WEATHER AND/OR OBSTRUCTIONS TO VISIBILITY.

...SOUTH CENTRAL NEBRASKA...

CITY           SKY/WX    TMP DP  RH WIND       PRES   REMARKS
GRAND ISLAND   CLEAR     74  64  71 N10       29.91R
HASTINGS       CLEAR     74  67  78 NW9       29.90R
KEARNEY        CLEAR     72  57  60 N7        29.92R
ORD            CLEAR     65  56  72 NW8       29.93R
YORK           PTCLDY    72  68  88 CALM      29.87R
AURORA         MOCLDY    73  72  95 W3        29.90R
LEXINGTON      CLEAR     63  57  79 NW3       29.96R
HOLDREGE       CLEAR     69  57  66 N8        29.93R
HEBRON         CLEAR     75  68  79 S10G18    29.85S

...NEBRASKA PANHANDLE...

CITY           SKY/WX    TMP DP  RH WIND       PRES   REMARKS
CHADRON        CLOUDY    54  33  45 SW7       30.07R
ALLIANCE       CLOUDY    48  42  80 W7        30.09R
SCOTTSBLUFF    CLEAR     57  46  66 E7        30.09R
SIDNEY         PTCLDY    58  48  69 CALM      30.11R

...WESTERN AND NORTH CENTRAL NEBRASKA...

CITY           SKY/WX    TMP DP  RH WIND       PRES   REMARKS
VALENTINE      PTCLDY    58  41  53 N5        29.97S
AINSWORTH      CLEAR     61  49  63 NW5       29.98R
ONEILL         CLEAR     65  55  70 NW6       29.95R
BROKEN BOW     CLEAR     64  51  62 N5        29.97R
IMPERIAL       CLEAR     61  47  59 NE6       30.02R
NORTH PLATTE   CLEAR     59  48  67 NE3       29.99R
MCCOOK         CLEAR     68  51  54 N12       29.96R

...EASTERN NEBRASKA...

CITY           SKY/WX    TMP DP  RH WIND       PRES   REMARKS
NORFOLK        CLOUDY    69  65  86 S10       29.88S
SO SIOUX CITY  CLOUDY    71  63  75 S6        29.81F
TEKAMAH        CLOUDY    68  62  81 SW14      29.85R
COLUMBUS       MOCLDY    68  57  68 NW9       29.91R THUNDER
ALBION         CLOUDY    74  59  59 N5        29.91R
OMAHA EPPLEY   CLOUDY    68  64  87 SW16        N/A  THUNDER
OFFUTT AFB     TSTM      66  66 100 VRB5      29.84F
MILLARD        TSTM      68  65  90 S5        29.88F
LINCOLN        HVY RAIN  69  67  93 NE20G30   29.92R FOG
NEBRASKA CITY  CLOUDY    74  68  81 N15G26    29.93R THUNDER
BEATRICE       CLOUDY    73  63  70 S8        29.87R
FALLS CITY     LGT RAIN  76  74  93 SW13      29.89S

...NORTHERN KANSAS...

CITY           SKY/WX    TMP DP  RH WIND       PRES   REMARKS
GOODLAND       CLEAR     64  48  56 NE5       30.02R
HILL CITY      CLEAR     73  61  65 N13       29.92R
NORTON         CLEAR     73  52  46 N12       29.92R
SMITH CENTER   CLEAR     73  66  78 CALM      29.86S
BELOIT         CLEAR     73  70  88 NE3       29.84S
HAYS           PTCLDY    79  59  50 S10       29.88R
RUSSELL        MOCLDY    80  62  54 SW14      29.86R
CONCORDIA      CLEAR     77  71  82 S13       29.86S
SALINA         PTCLDY    83  70  64 S14G23    29.86S
TOPEKA         MOCLDY    80  71  74 SW9G20    29.91R



USA.gov is the U.S. government's official web portal to all federal, state and local government web resources and services.